Aeroporto :
LOGIN :

Iscrizione | Disclaimer

   EN    FR    IT 

 










Sommario :    VFR   VFR Marginale   IFR   IFR Intensivo   IFR Molto Intensivo
Visibilità : 
Base nubi : 
>= 8 km
>= 3000ft
5 / 8 km
1000 / 3000 ft
1500m / 5 km
500 / 1000 ft
800 / 1500m
200 / 500 ft
< 800m
< 200 ft
Simboli :   Temporali  Nebbia  Neve Forte  Precipitazioni Forti  Vento > 20 kt
SIGMETs :   Varie  Temporali  Ghiacco  Turbolenza  Onda orograficha  Ceneri Vulcaniche







- Altitudine del aeroporto : 36 ft
- Codice IATA : LTQ
- Carte del aeroporto


LFAT - Le Touquet

ULTIMO METAR :
  • 151430Z AUTO 34006KT CAVOK 20/16 Q1011 NOSIG

METARs OBSOLETI :
  • 151400Z AUTO 33006KT CAVOK 20/16 Q1011 NOSIG
  • 151330Z AUTO 29006KT 240V340 CAVOK 21/15 Q1011 NOSIG
  • 151300Z AUTO 26006KT 220V290 CAVOK 22/15 Q1011 NOSIG
  • 151230Z AUTO 24005KT 200V290 CAVOK 22/15 Q1010 NOSIG
  • 151200Z AUTO 23007KT 160V270 9999 FEW031 22/15 Q1010 NOSIG
  • 151130Z AUTO 18006KT 130V250 9999 SCT027 SCT032 22/15 Q1010 NOSIG

TAF TAF LFAT
Valido dal 15 a 15 ore il 16 a 00 ore UTC


151400Z 1515/1524 33006KT CAVOK
BECMG 1516/1518 03006KT
ATIS : +33 3 21 06 62 84
Nessun NOTAM noto per questo aeroporto.



MetMap, La meteo Aeronautica in un colpo d'occhio ! - Copyright ORBIFLY Dicembre 2007 - Disclaimer

ORBIFLY MET'MAP TEAM :

Programmazione e sviluppo : Alexandra Zaïnal
Concezione e sviluppo : Baudouin d'Aumeries
Co-Programmazione e sviluppo : Marc-Olivier Méhu
Supporto tecnico e logistico : Manuel Goepfert
Aiuto per la traduzione : Arnaldo La Scala

Contatto : metmap@orbifly.com




FONTI E CREDITI :

   NOAA